[[{"header":{"parameterUnit":"m.s-1","parameterCategory":1,"la1":30.2991,"la2":30.254,"lo1":-89.0895,"lo2":-89.0444,"dy":0.0017,"dx":0.0017,"nx":28,"ny":28,"refTime":"2025-07-25T09:00:00:Z","depth":0,"parameterNumber":2,"parameterNumberName":"U-component_of_WINDS"},"data":[0,0,0,0,0,0,0,0,0,0,0,0,0,0,0,0,0,0,0,0,0,0,0,0,0,0,0,0,0,0,0,0,0,0,0,0,0,0,0,0,0,0,0,0,0,0,0,0,0,0,0,0,0,0,0,0,0,0,0.6842,0.6842,0,0.6867,0.6868,0.6868,0.6766,0.6763,0.676,0.6757,0.6786,0.6789,0.6793,0,0,0,0,0,0,0,0,0,0,0,0,0,0.6705,0.6708,0.6842,0.6842,0.6843,0.6867,0.6868,0.6868,0.6766,0.6763,0.6759,0.6756,0.6785,0.6789,0.6793,0,0,0,0,0,0,0,0,0,0,0,0,0,0.6751,0.6709,0.6842,0.6795,0.6791,0.6867,0.6868,0.6868,0.6767,0.6763,0.6758,0.6754,0.6783,0.6788,0.6794,0.6917,0,0,0.681,0.6812,0,0,0,0,0,0,0,0,0.6749,0.6756,0.6801,0.6798,0.6794,0.6809,0.683,0.6885,0.6768,0.6776,0.6757,0.6752,0.6797,0.6801,0.6816,0.6919,0.692,0.6811,0.6814,0.6816,0.6818,0,0,0,0,0,0,0,0.6746,0.6755,0.6852,0.6802,0.6798,0.6772,0.6774,0.684,0.6812,0.6775,0.6768,0.6772,0.6794,0.6811,0.6816,0.692,0.681,0.6815,0.6819,0.6821,0.7123,0.7128,0,0,0,0,0,0,0.6748,0.6753,0.6851,0.6853,0.6759,0.6778,0.678,0.6809,0.6811,0.6807,0.6776,0.6767,0.6804,0.681,0.6817,0.696,0.6816,0.6821,0.6824,0.7118,0.7124,0.7129,0,0,0,0,0,0,0.6746,0.6758,0.685,0.6801,0.681,0.6785,0.6818,0.6811,0.6828,0.6811,0.6806,0.6798,0.6801,0.6809,0.6892,0.696,0.6824,0.6828,0.7113,0.712,0.7127,0.7249,0,0,0,0,0,0,0.6742,0.6758,0.6805,0.6802,0.6813,0.6926,0.6822,0.6815,0.6837,0.6826,0.6831,0.6827,0.6798,0.6885,0.6898,0.6965,0.6833,0.7107,0.7116,0.7125,0.7239,0.726,0.7277,0,0,0,0,0,0.6738,0.684,0.6808,0.6821,0.6872,0.693,0.6936,0.69,0.6843,0.689,0.6879,0.6827,0.695,0.6894,0.6908,0.6977,0.7102,0.7113,0.7124,0.7231,0.7256,0.7277,0,0,0,0,0,0,0.6853,0.6839,0.6803,0.6907,0.692,0.6913,0.6971,0.6928,0.6958,0.6947,0.69,0.6902,0.6993,0.6993,0.6932,0.7096,0.7016,0.703,0.7093,0.7116,0.7135,0.7134,0.6837,0,0,0,0,0,0.689,0.6938,0.6923,0.7016,0.7025,0.6997,0.7021,0.6991,0.7003,0.7009,0.7003,0.7018,0.7059,0.7088,0.7125,0.7238,0.7237,0.7292,0.7311,0.7327,0.734,0.7398,0.7422,0.7165,0.7165,0.7165,0,0,0.6968,0.6966,0.7,0.7039,0.7046,0.7097,0.7002,0.7061,0.7098,0.7018,0.7095,0.7092,0.7105,0.7203,0.7246,0.7206,0.7411,0.7341,0.7354,0.7358,0.7412,0.7436,0.7458,0.7172,0.7171,0.717,0,0,0.7136,0.714,0.7216,0.7224,0.7234,0.7215,0.7233,0.7231,0.7225,0.7302,0.7242,0.7286,0.7359,0.7369,0.7384,0.7552,0.7506,0.7566,0.7666,0.7723,0.7744,0.7761,0.782,0.7842,0.7579,0.7579,0.7579,0,0.7232,0.7305,0.7262,0.7323,0.7342,0.7269,0.7346,0.7356,0.7379,0.7393,0.7347,0.7435,0.7439,0.7537,0.7578,0.7593,0.7612,0.7566,0.7744,0.7761,0.7777,0.7833,0.7856,0.7586,0.7585,0.7585,0.7584,0,0.7422,0.7474,0.7534,0.7556,0.7581,0.7651,0.7617,0.7648,0.7614,0.7599,0.7678,0.7679,0.7714,0.7735,0.7704,0.7829,0.7803,0.7752,0.7671,0.781,0.7861,0.7883,0.7596,0.7594,0.7592,0.759,0,0,0.7666,0.7659,0.7683,0.769,0.7695,0.7734,0.7799,0.7831,0.7858,0.7876,0.7928,0.799,0.7941,0.7958,0.7928,0.7978,0.8109,0.7919,0.7919,0.7954,0.8245,0.8284,0.831,0.8077,0.8081,0.8084,0.8244,0,0.7829,0.7939,0.79,0.8013,0.8059,0.7989,0.8045,0.8054,0.8041,0.8078,0.8064,0.8108,0.804,0.805,0.8096,0.8083,0.8167,0.8071,0.8126,0.8129,0.8126,0.8337,0.8379,0.8529,0.8264,0.8267,0.827,0,0.8036,0.8059,0.8176,0.8169,0.8187,0.8239,0.8264,0.8301,0.8308,0.8295,0.8313,0.8271,0.8333,0.8251,0.8337,0.8273,0.8292,0.8289,0.8294,0.8299,0.8208,0.8347,0.8576,0.8599,0.8301,0.8299,0.8296,0,0.8201,0.8261,0.8338,0.8347,0.8342,0.8379,0.8379,0.8382,0.8403,0.8426,0.8439,0.8469,0.8486,0.851,0.8476,0.842,0.8566,0.8482,0.8557,0.8558,0.8592,0.8591,0.8828,0.8605,0.8605,0.8604,0.8604,0,0.8388,0.8462,0.8412,0.8459,0.8539,0.8493,0.8574,0.8565,0.8568,0.8612,0.8554,0.8597,0.855,0.8589,0.8563,0.8637,0.8645,0.8636,0.8629,0.8642,0.8643,0.8655,0.8644,0.861,0.8609,0.8608,0.8607,0,0.8587,0.8556,0.8635,0.8622,0.8621,0.868,0.867,0.8713,0.8694,0.8751,0.8761,0.8733,0.8775,0.8743,0.8786,0.8768,0.8865,0.8843,0.8863,0.8856,0.8933,0.8926,0.9187,0.9218,0.8975,0.8977,0.8979,0,0.8709,0.8763,0.8756,0.878,0.8783,0.8824,0.8844,0.88,0.8824,0.8835,0.8877,0.8913,0.894,0.901,0.8994,0.9025,0.9003,0.9092,0.9008,0.9018,0.9004,0.9001,0.9006,0.911,0.9113,0.9115,0.9117,0,0.8927,0.8908,0.894,0.8966,0.8991,0.901,0.9024,0.9047,0.9002,0.9032,0.9073,0.9093,0.9134,0.9171,0.9196,0.9196,0.915,0.9143,0.9162,0.9176,0.9185,0.9181,0.8909,0.9138,0.9136,0.9134,0.9133,0.9132,0.9091,0.9135,0.9136,0.9172,0.9177,0.9191,0.923,0.9215,0.9248,0.9277,0.9249,0.9298,0.9302,0.933,0.9335,0.9373,0.9337,0.9365,0.9371,0.9379,0.9389,0.9179,0.9378,0.9377,0.9377,0.9376,0.9376,0,0.9306,0.9302,0.9336,0.9355,0.9384,0.9335,0.9347,0.9374,0.9417,0.9424,0.9451,0.9497,0.9532,0.9517,0.9547,0.958,0.956,0.959,0.9587,0.9588,0.9421,0.9401,0.9606,0.9606,0.9606,0.9606,0.9606,0.9606,0.9421,0.9493,0.9474,0.9547,0.9543,0.9589,0.96,0.9612,0.9617,0.9671,0.9699,0.9688,0.9685,0.9714,0.9744,0.9738,0.9752,0.9791,0.9778,0.9622,0.96,0.9578,0.9559,0.9794,0.9794,0.9941,0.9942,0.9943]},{"header":{"parameterUnit":"m.s-1","parameterCategory":1,"la1":30.2991,"la2":30.254,"lo1":-89.0895,"lo2":-89.0444,"dy":0.0017,"dx":0.0017,"nx":28,"ny":28,"refTime":"2025-07-25T09:00:00:Z","depth":0,"parameterNumber":3,"parameterNumberName":"V-component_of_WINDS"},"data":[0,0,0,0,0,0,0,0,0,0,0,0,0,0,0,0,0,0,0,0,0,0,0,0,0,0,0,0,0,0,0,0,0,0,0,0,0,0,0,0,0,0,0,0,0,0,0,0,0,0,0,0,0,0,0,0,0,0,7.9173,7.9173,0,7.9104,7.9103,7.9102,7.8977,7.8975,7.8972,7.897,7.89,7.8901,7.8901,0,0,0,0,0,0,0,0,0,0,0,0,0,7.9199,7.9199,7.9173,7.9173,7.9172,7.9104,7.9103,7.9102,7.8977,7.8974,7.8972,7.8969,7.89,7.8901,7.8901,0,0,0,0,0,0,0,0,0,0,0,0,0,7.9165,7.9199,7.9174,7.9101,7.9094,7.9104,7.9103,7.9102,7.8978,7.8974,7.8971,7.8967,7.89,7.8901,7.8901,7.8977,0,0,7.8903,7.8903,0,0,0,0,0,0,0,0,7.9167,7.9164,7.9113,7.9106,7.9098,7.9045,7.9086,7.906,7.8979,7.9022,7.897,7.8966,7.8952,7.8948,7.8943,7.8973,7.897,7.8903,7.8903,7.8904,7.8904,0,0,0,0,0,0,0,7.9169,7.9166,7.9146,7.9112,7.9103,7.9072,7.9064,7.9081,7.9008,7.9018,7.9009,7.9002,7.8947,7.8942,7.894,7.8969,7.8903,7.8903,7.8904,7.8904,7.9055,7.9058,0,0,0,0,0,0,7.9182,7.9169,7.9148,7.9144,7.9124,7.9075,7.9065,7.9066,7.9007,7.8995,7.9005,7.8997,7.8943,7.894,7.8937,7.9017,7.8904,7.8904,7.8904,7.9051,7.9056,7.9059,0,0,0,0,0,0,7.9183,7.9181,7.9151,7.9154,7.9148,7.9078,7.908,7.9067,7.9061,7.8998,7.8984,7.9014,7.894,7.8936,7.8967,7.9013,7.8904,7.8905,7.9047,7.9052,7.9058,7.9181,0,0,0,0,0,0,7.9184,7.9183,7.921,7.9155,7.9148,7.9182,7.9083,7.9068,7.9063,7.9051,7.9002,7.8991,7.8937,7.8967,7.8967,7.9012,7.8905,7.9042,7.9049,7.9056,7.9173,7.919,7.9206,0,0,0,0,0,7.9186,7.9249,7.9212,7.921,7.9181,7.9185,7.918,7.9117,7.9067,7.9094,7.9053,7.8992,7.901,7.8971,7.8971,7.9016,7.9039,7.9047,7.9055,7.9165,7.9187,7.9205,0,0,0,0,0,0,7.9312,7.9241,7.9199,7.9246,7.9223,7.9164,7.9195,7.9143,7.9132,7.9122,7.9044,7.9034,7.9074,7.9049,7.9007,7.9084,7.9014,7.9023,7.9098,7.9118,7.9134,7.9137,7.8906,0,0,0,0,0,7.9346,7.9354,7.9292,7.934,7.933,7.9265,7.9265,7.9218,7.919,7.9179,7.914,7.9116,7.9115,7.9116,7.9113,7.9171,7.9156,7.9202,7.9219,7.9232,7.9239,7.9263,7.9282,7.9087,7.9086,7.9086,0,0,7.9414,7.9376,7.9387,7.9364,7.934,7.9349,7.9257,7.9273,7.9278,7.9182,7.9206,7.9178,7.9145,7.9188,7.9206,7.9169,7.929,7.9243,7.9254,7.9253,7.9274,7.9292,7.9309,7.9092,7.9091,7.909,0,0,7.9543,7.9517,7.9552,7.953,7.9494,7.9451,7.946,7.9409,7.9385,7.9409,7.9335,7.9343,7.9344,7.9323,7.9312,7.9434,7.9376,7.9436,7.9519,7.9544,7.9559,7.9572,7.9611,7.9626,7.9444,7.9444,7.9444,0,7.9632,7.9644,7.9577,7.9595,7.9586,7.95,7.9533,7.9515,7.9481,7.9477,7.9437,7.9435,7.9408,7.9442,7.9472,7.9468,7.9473,7.9438,7.9563,7.9575,7.9586,7.9622,7.9637,7.9451,7.945,7.9449,7.9449,0,7.9753,7.9763,7.9796,7.9762,7.9758,7.9785,7.9721,7.9725,7.968,7.9641,7.9665,7.9629,7.9615,7.9621,7.9578,7.965,7.9627,7.9577,7.9503,7.9613,7.9645,7.9659,7.9461,7.9458,7.9456,7.9454,0,0,7.9956,7.9886,7.9898,7.9881,7.9836,7.9841,7.9865,7.985,7.9852,7.9833,7.9847,7.9851,7.9803,7.9791,7.9745,7.9768,7.9861,7.9714,7.9712,7.9738,7.9932,7.9967,7.9984,7.9825,7.9827,7.9829,7.9933,0,8.007,8.0103,8.0043,8.009,8.0096,8.0014,8.0034,8.0008,7.9973,7.9973,7.9935,7.9936,7.9875,7.9867,7.9887,7.9845,7.9898,7.9838,7.9834,7.9835,7.9839,8.0001,8.0038,8.0138,7.9946,7.9948,7.995,0,8.0207,8.0192,8.0239,8.0189,8.0189,8.0207,8.0187,8.019,8.0159,8.0132,8.0119,8.0064,8.0082,8.0016,8.0038,7.9998,7.9994,7.9974,7.9976,7.9969,7.9895,7.9993,8.0168,8.0182,7.997,7.9968,7.9967,0,8.0343,8.0336,8.0361,8.035,8.0294,8.0308,8.0285,8.0251,8.0245,8.0229,8.0224,8.0212,8.0203,8.0195,8.0137,8.0096,8.0165,8.0095,8.014,8.0141,8.0153,8.0152,8.0325,8.0161,8.0161,8.016,8.016,0,8.0474,8.0504,8.0421,8.0436,8.0468,8.04,8.0433,8.0403,8.0373,8.038,8.0312,8.032,8.0247,8.0247,8.0204,8.0226,8.0224,8.0201,8.0187,8.0203,8.0206,8.0195,8.0185,8.0164,8.0163,8.0163,8.0162,0,8.0628,8.0574,8.0596,8.0541,8.0528,8.0553,8.0506,8.0517,8.0479,8.0489,8.0488,8.0427,8.0424,8.0367,8.0353,8.0323,8.0361,8.0338,8.0371,8.0361,8.0407,8.0401,8.0574,8.0592,8.0422,8.0424,8.0426,0,8.0712,8.0733,8.068,8.068,8.066,8.0661,8.0654,8.059,8.0586,8.0552,8.0568,8.0559,8.0547,8.0546,8.05,8.0488,8.046,8.0522,8.0458,8.0472,8.0455,8.0452,8.0452,8.0534,8.0536,8.0538,8.054,0,8.0864,8.0837,8.0829,8.0813,8.0807,8.0792,8.0772,8.0776,8.0705,8.0704,8.0699,8.0691,8.0675,8.0666,8.0645,8.0621,8.0568,8.0561,8.0569,8.0583,8.0599,8.0585,8.0401,8.0556,8.0554,8.0553,8.0552,8.0551,8.0982,8.0995,8.096,8.0954,8.0932,8.0915,8.0922,8.0884,8.0879,8.086,8.0824,8.0824,8.0792,8.0758,8.0739,8.0738,8.0706,8.072,8.0723,8.0726,8.0732,8.0604,8.0735,8.0734,8.0734,8.0733,8.0733,0,8.1126,8.1099,8.1095,8.1068,8.1063,8.1016,8.0991,8.0989,8.099,8.0965,8.0955,8.0949,8.094,8.0894,8.0879,8.0887,8.0862,8.0885,8.0881,8.0875,8.0764,8.0756,8.0905,8.0905,8.0905,8.0905,8.0905,8.0905,8.12,8.1219,8.1187,8.1195,8.1168,8.1167,8.1156,8.114,8.1118,8.1114,8.1106,8.1077,8.1042,8.1025,8.1013,8.1,8.0996,8.1026,8.1004,8.09,8.0883,8.0867,8.0858,8.1027,8.1027,8.1114,8.1115,8.1115]}]]